English version Home page |
Updated on April 4, 2021 |
プロフィール
|
軌道要素Epoch 2020 Aug. 19.0 TT = JDT 2459080.5 T 2020 Aug. 23.70949 TT Rudenko q 1.7938068 (2000.0) P Q z +0.0098129 Peri. 331.22564 +0.24767325 -0.91559410 +/-0.0000121 Node 257.07705 -0.81500107 -0.37368437 e 0.9823975 Incl. 161.03411 -0.52386183 +0.14848381 From 88 observations 2020 July 13-2021 Mar. 22, mean residual 0".5.
|
光度変化m1 = 15.3 + 5 logΔ + 10.0 log r
|
軌道要素はM.P.E.C. 2021-F115に掲載されたものです。
|